TimeCST,TemperatureF,Dew PointF,Humidity,Sea Level PressureIn,VisibilityMPH,Wind Direction,Wind SpeedMPH,Gust SpeedMPH,PrecipitationIn,Events,Conditions,WindDirDegrees,DateUTC
12:15 AM,41.0,41.0,100,30.17,10.0,Calm,Calm,-,N/A,,Clear,0,2012-11-20 06:15:00
12:35 AM,41.0,41.0,100,30.17,10.0,Calm,Calm,-,N/A,,Clear,0,2012-11-20 06:35:00
12:55 AM,41.0,41.0,100,30.16,10.0,Calm,Calm,-,N/A,,Clear,0,2012-11-20 06:55:00
1:15 AM,41.0,41.0,100,30.16,10.0,Calm,Calm,-,N/A,,Clear,0,2012-11-20 07:15:00
1:35 AM,41.0,41.0,100,30.16,10.0,Calm,Calm,-,N/A,,Clear,0,2012-11-20 07:35:00
1:55 AM,41.0,41.0,100,30.16,7.0,Calm,Calm,-,N/A,,Clear,0,2012-11-20 07:55:00
2:15 AM,42.8,41.0,93,30.17,7.0,Calm,Calm,-,N/A,,Clear,0,2012-11-20 08:15:00
2:35 AM,42.8,42.8,100,30.17,7.0,Calm,Calm,-,N/A,,Clear,0,2012-11-20 08:35:00
6:15 AM,37.4,37.4,100,30.19,5.0,Calm,Calm,-,N/A,,Clear,0,2012-11-20 12:15:00
6:35 AM,37.4,37.4,100,30.19,7.0,Calm,Calm,-,N/A,,Clear,0,2012-11-20 12:35:00
6:55 AM,37.4,37.4,100,30.19,5.0,Calm,Calm,-,N/A,,Clear,0,2012-11-20 12:55:00
7:15 AM,37.4,37.4,100,30.19,-9999.0,Calm,Calm,-,N/A,,Unknown,0,2012-11-20 13:15:00
7:35 AM,37.4,35.6,93,30.20,-9999.0,Calm,Calm,-,N/A,,Unknown,0,2012-11-20 13:35:00
7:55 AM,39.2,39.2,100,30.21,5.0,Calm,Calm,-,N/A,,Clear,0,2012-11-20 13:55:00
8:15 AM,42.8,42.8,100,30.22,7.0,Calm,Calm,-,N/A,,Clear,0,2012-11-20 14:15:00
8:35 AM,46.4,44.6,93,30.22,10.0,Calm,Calm,-,N/A,,Clear,0,2012-11-20 14:35:00
8:55 AM,50.0,44.6,82,30.22,10.0,Calm,Calm,-,N/A,,Clear,0,2012-11-20 14:55:00
9:15 AM,51.8,46.4,82,30.22,10.0,Calm,Calm,-,N/A,,Clear,0,2012-11-20 15:15:00
9:35 AM,55.4,46.4,72,30.22,10.0,Calm,Calm,-,N/A,,Clear,0,2012-11-20 15:35:00
9:55 AM,59.0,46.4,63,30.22,10.0,SW,4.6,-,N/A,,Clear,230,2012-11-20 15:55:00
10:15 AM,60.8,48.2,63,30.23,10.0,West,3.5,-,N/A,,Clear,270,2012-11-20 16:15:00
10:35 AM,62.6,50.0,63,30.23,10.0,WNW,4.6,-,N/A,,Clear,300,2012-11-20 16:35:00
10:55 AM,62.6,50.0,63,30.23,10.0,NW,3.5,-,N/A,,Clear,320,2012-11-20 16:55:00
11:15 AM,64.4,50.0,59,30.22,10.0,Calm,Calm,-,N/A,,Clear,0,2012-11-20 17:15:00
11:35 AM,64.4,51.8,64,30.22,10.0,NW,3.5,-,N/A,,Clear,310,2012-11-20 17:35:00
11:55 AM,68.0,51.8,56,30.20,10.0,Calm,Calm,-,N/A,,Clear,0,2012-11-20 17:55:00
12:15 PM,68.0,50.0,52,30.19,10.0,Calm,Calm,-,N/A,,Clear,0,2012-11-20 18:15:00
12:35 PM,68.0,50.0,52,30.19,10.0,West,3.5,-,N/A,,Clear,270,2012-11-20 18:35:00
12:55 PM,69.8,50.0,49,30.18,10.0,Calm,Calm,-,N/A,,Clear,0,2012-11-20 18:55:00
1:15 PM,69.8,44.6,40,30.18,10.0,NNW,8.1,-,N/A,,Clear,340,2012-11-20 19:15:00
1:35 PM,69.8,46.4,43,30.17,10.0,WNW,6.9,-,N/A,,Clear,290,2012-11-20 19:35:00
1:55 PM,71.6,42.8,35,30.16,10.0,WNW,3.5,-,N/A,,Clear,290,2012-11-20 19:55:00
2:15 PM,71.6,41.0,33,30.16,10.0,NNW,6.9,-,N/A,,Clear,340,2012-11-20 20:15:00
2:35 PM,71.6,42.8,35,30.16,10.0,NNW,4.6,-,N/A,,Clear,330,2012-11-20 20:35:00
2:55 PM,71.6,42.8,35,30.16,10.0,North,8.1,-,N/A,,Clear,360,2012-11-20 20:55:00
3:15 PM,69.8,42.8,38,30.16,10.0,NNW,9.2,-,N/A,,Clear,340,2012-11-20 21:15:00
3:35 PM,69.8,41.0,35,30.16,10.0,NNW,6.9,-,N/A,,Clear,340,2012-11-20 21:35:00
3:55 PM,68.0,41.0,37,30.17,10.0,North,8.1,-,N/A,,Clear,350,2012-11-20 21:55:00
4:15 PM,68.0,42.8,40,30.17,10.0,NNW,6.9,-,N/A,,Clear,340,2012-11-20 22:15:00
4:35 PM,64.4,42.8,45,30.17,10.0,NNW,5.8,-,N/A,,Clear,330,2012-11-20 22:35:00
4:55 PM,62.6,44.6,52,30.17,10.0,North,4.6,-,N/A,,Clear,360,2012-11-20 22:55:00
5:15 PM,59.0,44.6,59,30.18,10.0,North,3.5,-,N/A,,Clear,350,2012-11-20 23:15:00
5:35 PM,55.4,44.6,67,30.18,10.0,NNW,4.6,-,N/A,,Clear,340,2012-11-20 23:35:00
5:55 PM,55.4,44.6,67,30.18,10.0,North,3.5,-,N/A,,Clear,350,2012-11-20 23:55:00
6:15 PM,53.6,44.6,72,30.19,10.0,Calm,Calm,-,N/A,,Clear,0,2012-11-21 00:15:00
6:35 PM,50.0,44.6,82,30.19,10.0,Calm,Calm,-,N/A,,Clear,0,2012-11-21 00:35:00
6:55 PM,50.0,42.8,76,30.20,10.0,Calm,Calm,-,N/A,,Clear,0,2012-11-21 00:55:00
7:15 PM,48.2,42.8,82,30.20,10.0,Calm,Calm,-,N/A,,Clear,0,2012-11-21 01:15:00
7:35 PM,48.2,42.8,82,30.21,10.0,Calm,Calm,-,N/A,,Clear,0,2012-11-21 01:35:00
7:55 PM,46.4,42.8,87,30.21,10.0,Calm,Calm,-,N/A,,Clear,0,2012-11-21 01:55:00
8:15 PM,46.4,42.8,87,30.21,10.0,Calm,Calm,-,N/A,,Clear,0,2012-11-21 02:15:00
8:35 PM,44.6,41.0,87,30.21,10.0,Calm,Calm,-,N/A,,Clear,0,2012-11-21 02:35:00
8:55 PM,44.6,42.8,93,30.22,10.0,Calm,Calm,-,N/A,,Clear,0,2012-11-21 02:55:00
9:15 PM,44.6,41.0,87,30.22,10.0,Calm,Calm,-,N/A,,Clear,0,2012-11-21 03:15:00
9:35 PM,46.4,41.0,81,30.23,10.0,Calm,Calm,-,N/A,,Clear,0,2012-11-21 03:35:00
9:55 PM,41.0,39.2,93,30.23,10.0,Calm,Calm,-,N/A,,Clear,0,2012-11-21 03:55:00
10:15 PM,41.0,37.4,87,30.24,10.0,Calm,Calm,-,N/A,,Clear,0,2012-11-21 04:15:00
10:35 PM,41.0,39.2,93,30.23,10.0,Calm,Calm,-,N/A,,Clear,0,2012-11-21 04:35:00
10:55 PM,39.2,37.4,93,30.23,10.0,Calm,Calm,-,N/A,,Clear,0,2012-11-21 04:55:00
11:15 PM,39.2,37.4,93,30.24,10.0,Calm,Calm,-,N/A,,Clear,0,2012-11-21 05:15:00
11:35 PM,37.4,37.4,100,30.24,10.0,Calm,Calm,-,N/A,,Clear,0,2012-11-21 05:35:00
11:55 PM,37.4,37.4,100,30.24,10.0,Calm,Calm,-,N/A,,Clear,0,2012-11-21 05:55:00